EFW3ZA EGKK-LEZL

Flight info

Callsign EFW3ZA
Flight time 2h 19m
Altitude 33000
Route IMVUR1Z IMVUR N63 SAM M195 MARUK N621 LELNA DCT NOVAN DCT DELOG N864 MONTO N857 HIJ HIJ4E
Aircraft A321/M-SDE3FGIJ1KRWXY/SB1

Departure

Time 2026-05-07 06:11
Airport London Gatwick Airport (EGKK)

Arrival

Time 2026-05-07 08:31
Airport Seville Airport (LEZL)
Time Latitude Longitude Altitude Speed Heading
2026-05-07 05:21 51.15462 -0.17159 215 ft 0 kts 36°
2026-05-07 05:58 51.15446 -0.17178 190 ft 4 kts 36°
2026-05-07 05:58 51.15427 -0.17200 220 ft 4 kts 43°
2026-05-07 05:58 51.15415 -0.17231 212 ft 4 kts 97°
2026-05-07 05:59 51.15425 -0.17265 214 ft 4 kts 148°
2026-05-07 05:59 51.15450 -0.17278 214 ft 4 kts 167°
2026-05-07 05:59 51.15459 -0.17281 212 ft 0 kts 167°
2026-05-07 06:01 51.15447 -0.17278 204 ft 4 kts 168°
2026-05-07 06:02 51.15410 -0.17264 212 ft 7 kts 168°
2026-05-07 06:02 51.15374 -0.17289 209 ft 5 kts 227°
2026-05-07 06:02 51.15349 -0.17348 206 ft 7 kts 219°
2026-05-07 06:02 51.15307 -0.17399 214 ft 8 kts 239°
2026-05-07 06:03 51.15294 -0.17498 203 ft 10 kts 259°
2026-05-07 06:03 51.15278 -0.17608 203 ft 11 kts 257°
2026-05-07 06:03 51.15263 -0.17726 206 ft 11 kts 258°
2026-05-07 06:03 51.15245 -0.17853 204 ft 12 kts 257°
2026-05-07 06:04 51.15227 -0.17990 214 ft 13 kts 258°
2026-05-07 06:04 51.15206 -0.18136 204 ft 14 kts 257°
2026-05-07 06:04 51.15188 -0.18293 213 ft 15 kts 264°
2026-05-07 06:04 51.15168 -0.18460 210 ft 16 kts 257°
2026-05-07 06:05 51.15144 -0.18635 213 ft 17 kts 257°
2026-05-07 06:05 51.15120 -0.18809 206 ft 15 kts 257°
2026-05-07 06:05 51.15098 -0.18962 215 ft 14 kts 258°
2026-05-07 06:05 51.15078 -0.19113 204 ft 14 kts 257°
2026-05-07 06:06 51.15056 -0.19270 215 ft 15 kts 258°
2026-05-07 06:06 51.15034 -0.19430 207 ft 15 kts 257°
2026-05-07 06:06 51.15011 -0.19596 209 ft 16 kts 258°
2026-05-07 06:06 51.14988 -0.19768 207 ft 16 kts 257°
2026-05-07 06:07 51.14963 -0.19946 204 ft 17 kts 257°
2026-05-07 06:07 51.14937 -0.20135 208 ft 18 kts 257°
2026-05-07 06:07 51.14910 -0.20329 208 ft 18 kts 257°
2026-05-07 06:07 51.14883 -0.20529 210 ft 19 kts 257°
2026-05-07 06:08 51.14855 -0.20731 209 ft 19 kts 257°
2026-05-07 06:08 51.14828 -0.20924 209 ft 17 kts 257°
2026-05-07 06:08 51.14809 -0.21059 210 ft 10 kts 258°
2026-05-07 06:08 51.14790 -0.21157 212 ft 10 kts 245°
2026-05-07 06:09 51.14772 -0.21267 204 ft 11 kts 257°
2026-05-07 06:09 51.14753 -0.21375 212 ft 9 kts 240°
2026-05-07 06:09 51.14696 -0.21390 206 ft 9 kts 166°
2026-05-07 06:09 51.14640 -0.21338 207 ft 10 kts 158°
2026-05-07 06:10 51.14570 -0.21308 205 ft 11 kts 160°
2026-05-07 06:10 51.14518 -0.21207 208 ft 13 kts 102°
2026-05-07 06:10 51.14534 -0.21069 205 ft 15 kts 78°
2026-05-07 06:10 51.14602 -0.20568 210 ft 82 kts 77°
2026-05-07 06:11 51.14771 -0.19345 211 ft 142 kts 78°
2026-05-07 06:11 51.15021 -0.17565 414 ft 171 kts 77°
2026-05-07 06:11 51.15265 -0.15797 1345 ft 161 kts 78°
2026-05-07 06:11 51.15508 -0.14010 1732 ft 175 kts 78°
2026-05-07 06:12 51.15789 -0.12008 1958 ft 195 kts 78°
2026-05-07 06:12 51.16098 -0.09809 2231 ft 212 kts 78°
2026-05-07 06:12 51.16463 -0.07460 2554 ft 224 kts 67°
2026-05-07 06:12 51.17457 -0.05582 2962 ft 229 kts 30°
2026-05-07 06:13 51.18960 -0.05086 3238 ft 226 kts 351°
2026-05-07 06:13 51.20458 -0.05832 3561 ft 226 kts 339°
2026-05-07 06:13 51.21815 -0.07085 3885 ft 229 kts 315°
2026-05-07 06:13 51.22628 -0.09331 4184 ft 246 kts 279°
2026-05-07 06:14 51.22484 -0.12088 4620 ft 256 kts 255°
2026-05-07 06:14 51.22046 -0.14868 5039 ft 260 kts 259°
2026-05-07 06:14 51.21705 -0.17744 5402 ft 262 kts 261°
2026-05-07 06:14 51.21419 -0.20589 5714 ft 263 kts 261°
2026-05-07 06:15 51.21130 -0.23476 6047 ft 266 kts 261°
2026-05-07 06:15 51.20824 -0.26398 6707 ft 268 kts 261°
2026-05-07 06:15 51.20504 -0.29352 7347 ft 272 kts 260°
2026-05-07 06:15 51.20169 -0.32329 7976 ft 275 kts 260°
2026-05-07 06:16 51.19821 -0.35344 8591 ft 278 kts 259°
2026-05-07 06:16 51.19441 -0.38389 9219 ft 282 kts 259°
2026-05-07 06:16 51.19038 -0.41460 9839 ft 285 kts 258°
2026-05-07 06:16 51.18620 -0.44565 10418 ft 288 kts 258°
2026-05-07 06:17 51.18341 -0.46640 10772 ft 291 kts 257°
2026-05-07 06:17 51.17635 -0.49781 10890 ft 311 kts 246°
2026-05-07 06:17 51.16710 -0.53006 11023 ft 329 kts 246°
2026-05-07 06:17 51.15769 -0.56436 11153 ft 346 kts 247°
2026-05-07 06:18 51.14835 -0.60041 11466 ft 356 kts 248°
2026-05-07 06:18 51.13910 -0.63715 11955 ft 359 kts 248°
2026-05-07 06:18 51.12982 -0.67427 12498 ft 362 kts 248°
2026-05-07 06:18 51.12044 -0.71161 13042 ft 364 kts 248°
2026-05-07 06:19 51.11092 -0.74909 13590 ft 367 kts 248°
2026-05-07 06:19 51.10125 -0.78685 14103 ft 370 kts 248°
2026-05-07 06:19 51.09150 -0.82478 14579 ft 372 kts 248°
2026-05-07 06:19 51.08162 -0.86300 15062 ft 374 kts 248°
2026-05-07 06:20 51.07166 -0.90131 15523 ft 376 kts 247°
2026-05-07 06:20 51.06158 -0.93985 15978 ft 379 kts 248°
2026-05-07 06:20 51.05146 -0.97874 16456 ft 382 kts 247°
2026-05-07 06:20 51.04132 -1.01777 16934 ft 384 kts 247°
2026-05-07 06:21 51.03108 -1.05707 17386 ft 386 kts 248°
2026-05-07 06:21 51.02078 -1.09655 17816 ft 388 kts 248°
2026-05-07 06:21 51.01038 -1.13616 18238 ft 390 kts 247°
2026-05-07 06:21 50.99985 -1.17608 18621 ft 392 kts 247°
2026-05-07 06:22 50.98927 -1.21611 19005 ft 394 kts 247°
2026-05-07 06:22 50.96741 -1.29634 19750 ft 398 kts 242°
2026-05-07 06:22 50.95232 -1.33337 20112 ft 401 kts 232°
2026-05-07 06:23 50.93341 -1.36512 20469 ft 403 kts 221°
2026-05-07 06:23 50.91079 -1.39159 20829 ft 406 kts 213°
2026-05-07 06:23 50.88707 -1.41600 21200 ft 408 kts 213°
2026-05-07 06:23 50.86329 -1.44060 21565 ft 410 kts 214°
2026-05-07 06:24 50.83934 -1.46547 21942 ft 412 kts 214°
2026-05-07 06:24 50.81540 -1.49039 22300 ft 414 kts 214°
2026-05-07 06:24 50.79130 -1.51550 22655 ft 416 kts 214°
2026-05-07 06:24 50.76709 -1.54065 23009 ft 418 kts 214°
2026-05-07 06:25 50.74270 -1.56586 23354 ft 420 kts 214°
2026-05-07 06:25 50.71821 -1.59111 23685 ft 422 kts 214°
2026-05-07 06:25 50.69358 -1.61649 23974 ft 424 kts 214°
2026-05-07 06:25 50.66886 -1.64195 24266 ft 425 kts 214°
2026-05-07 06:26 50.64407 -1.66744 24556 ft 427 kts 214°
2026-05-07 06:26 50.61916 -1.69308 24846 ft 428 kts 214°
2026-05-07 06:26 50.59417 -1.71874 25151 ft 429 kts 214°
2026-05-07 06:26 50.56911 -1.74445 25433 ft 431 kts 214°
2026-05-07 06:27 50.54396 -1.77021 25717 ft 433 kts 214°
2026-05-07 06:27 50.51869 -1.79607 26002 ft 434 kts 214°
2026-05-07 06:27 50.49335 -1.82193 26273 ft 435 kts 214°
2026-05-07 06:27 50.46787 -1.84789 26551 ft 437 kts 214°
2026-05-07 06:28 50.44236 -1.87382 26837 ft 438 kts 214°
2026-05-07 06:28 50.41666 -1.89992 27103 ft 440 kts 214°
2026-05-07 06:28 50.39130 -1.92571 27359 ft 441 kts 214°
2026-05-07 06:28 50.36552 -1.95191 27617 ft 442 kts 214°
2026-05-07 06:29 50.33969 -1.97808 27878 ft 443 kts 214°
2026-05-07 06:29 50.31374 -2.00432 28118 ft 445 kts 214°
2026-05-07 06:29 50.28770 -2.03056 28345 ft 446 kts 214°
2026-05-07 06:29 50.26026 -2.05355 28554 ft 450 kts 205°
2026-05-07 06:30 50.23064 -2.06969 28759 ft 453 kts 196°
2026-05-07 06:30 50.19960 -2.07851 29043 ft 454 kts 187°
2026-05-07 06:30 50.16814 -2.08264 29320 ft 454 kts 187°
2026-05-07 06:30 50.13667 -2.08667 29616 ft 453 kts 187°
2026-05-07 06:31 50.10530 -2.09070 29915 ft 452 kts 187°
2026-05-07 06:31 50.07393 -2.09473 30192 ft 451 kts 187°
2026-05-07 06:31 50.04271 -2.09873 30426 ft 451 kts 187°
2026-05-07 06:31 50.01141 -2.10274 30646 ft 450 kts 187°
2026-05-07 06:32 49.98048 -2.10887 30858 ft 448 kts 194°
2026-05-07 06:32 49.95050 -2.12138 31064 ft 446 kts 199°
2026-05-07 06:32 49.92087 -2.13539 31280 ft 445 kts 199°
2026-05-07 06:32 49.89118 -2.14928 31503 ft 445 kts 199°
2026-05-07 06:33 49.86156 -2.16307 31723 ft 444 kts 199°
2026-05-07 06:33 49.83200 -2.17683 31940 ft 444 kts 199°
2026-05-07 06:33 49.80241 -2.19060 32156 ft 444 kts 199°
2026-05-07 06:33 49.77283 -2.20440 32377 ft 443 kts 199°
2026-05-07 06:34 49.74332 -2.21814 32592 ft 443 kts 199°
2026-05-07 06:34 49.71377 -2.23183 32801 ft 443 kts 199°
2026-05-07 06:34 49.68427 -2.24545 32998 ft 443 kts 199°
2026-05-07 06:34 49.65483 -2.25904 33059 ft 440 kts 199°
2026-05-07 06:35 49.59667 -2.28591 33055 ft 438 kts 199°
2026-05-07 06:35 49.53828 -2.31282 33053 ft 438 kts 199°
2026-05-07 06:36 49.47982 -2.33983 33027 ft 438 kts 199°
2026-05-07 06:36 49.42140 -2.36663 33035 ft 439 kts 199°
2026-05-07 06:37 49.36289 -2.39337 33040 ft 439 kts 199°
2026-05-07 06:37 49.30430 -2.42008 33045 ft 439 kts 198°
2026-05-07 06:38 49.24571 -2.44670 33043 ft 439 kts 198°
2026-05-07 06:38 49.18705 -2.47324 33063 ft 440 kts 198°
2026-05-07 06:39 49.12839 -2.49985 33060 ft 440 kts 198°
2026-05-07 06:39 49.06973 -2.52631 33058 ft 440 kts 198°
2026-05-07 06:40 49.01100 -2.55276 33049 ft 440 kts 198°
2026-05-07 06:40 48.95226 -2.57926 33048 ft 440 kts 198°
2026-05-07 06:41 48.89352 -2.60559 33053 ft 440 kts 198°
2026-05-07 06:41 48.83516 -2.63165 33052 ft 440 kts 198°
2026-05-07 06:42 48.77633 -2.65781 33051 ft 440 kts 198°
2026-05-07 06:42 48.71759 -2.68397 33050 ft 440 kts 198°
2026-05-07 06:43 48.65889 -2.71012 33047 ft 440 kts 198°
2026-05-07 06:43 48.60019 -2.73610 33038 ft 440 kts 198°
2026-05-07 06:44 48.54145 -2.76204 33043 ft 440 kts 198°
2026-05-07 06:44 48.48269 -2.78796 33044 ft 440 kts 198°
2026-05-07 06:45 48.42395 -2.81381 33041 ft 440 kts 198°
2026-05-07 06:45 48.36518 -2.83963 33038 ft 440 kts 198°
2026-05-07 06:46 48.30643 -2.86539 33037 ft 441 kts 198°
2026-05-07 06:46 48.24755 -2.89109 33038 ft 440 kts 198°
2026-05-07 06:47 48.18869 -2.91662 33039 ft 440 kts 198°
2026-05-07 06:47 48.12985 -2.94221 33034 ft 440 kts 198°
2026-05-07 06:48 48.07105 -2.96775 33036 ft 440 kts 198°
2026-05-07 06:48 48.01222 -2.99323 33036 ft 440 kts 198°
2026-05-07 06:49 47.95350 -3.01856 33030 ft 439 kts 197°
2026-05-07 06:49 47.89478 -3.04380 33028 ft 439 kts 197°
2026-05-07 06:50 47.83618 -3.06885 33017 ft 438 kts 197°
2026-05-07 06:50 47.77761 -3.09391 33033 ft 438 kts 197°
2026-05-07 06:51 47.71909 -3.11901 33025 ft 438 kts 197°
2026-05-07 06:51 47.66060 -3.14407 33034 ft 437 kts 197°
2026-05-07 06:52 47.60249 -3.16871 33028 ft 437 kts 197°
2026-05-07 06:52 47.54403 -3.19337 33017 ft 437 kts 197°
2026-05-07 06:53 47.48553 -3.21815 33029 ft 437 kts 197°
2026-05-07 06:53 47.42704 -3.24292 33017 ft 437 kts 197°
2026-05-07 06:54 47.36856 -3.26763 33032 ft 437 kts 197°
2026-05-07 06:54 47.31011 -3.29227 33019 ft 437 kts 197°
2026-05-07 06:55 47.25161 -3.31674 33035 ft 437 kts 196°
2026-05-07 06:55 47.19308 -3.34106 33029 ft 437 kts 197°
2026-05-07 06:56 47.13467 -3.36553 33026 ft 437 kts 197°
2026-05-07 06:56 47.07618 -3.39002 33034 ft 437 kts 197°
2026-05-07 06:57 47.01774 -3.41431 33027 ft 436 kts 197°
2026-05-07 06:57 46.95930 -3.43856 33024 ft 436 kts 196°
2026-05-07 06:58 46.90092 -3.46269 33023 ft 436 kts 197°
2026-05-07 06:58 46.84263 -3.48671 33026 ft 436 kts 197°
2026-05-07 06:59 46.78426 -3.51069 33019 ft 435 kts 197°
2026-05-07 06:59 46.72599 -3.53472 33028 ft 435 kts 197°
2026-05-07 07:00 46.66769 -3.55860 33021 ft 435 kts 196°
2026-05-07 07:00 46.60939 -3.58238 33029 ft 435 kts 197°
2026-05-07 07:01 46.55115 -3.60630 33036 ft 435 kts 197°
2026-05-07 07:01 46.49291 -3.63010 33043 ft 434 kts 196°
2026-05-07 07:02 46.43477 -3.65367 33040 ft 434 kts 196°
2026-05-07 07:02 46.37669 -3.67708 33038 ft 433 kts 196°
2026-05-07 07:03 46.31836 -3.69916 33032 ft 434 kts 190°
2026-05-07 07:03 46.25874 -3.70870 33031 ft 434 kts 187°
2026-05-07 07:04 46.19868 -3.71767 33034 ft 434 kts 187°
2026-05-07 07:04 46.13866 -3.72668 33034 ft 434 kts 187°
2026-05-07 07:05 46.07860 -3.73559 33040 ft 434 kts 187°
2026-05-07 07:05 46.01852 -3.74448 33036 ft 434 kts 187°
2026-05-07 07:06 45.95853 -3.75337 33036 ft 433 kts 187°
2026-05-07 07:06 45.89856 -3.76230 33037 ft 433 kts 187°
2026-05-07 07:07 45.83864 -3.77112 33032 ft 433 kts 187°
2026-05-07 07:07 45.78887 -3.77845 33032 ft 432 kts 187°
2026-05-07 07:08 45.72904 -3.78715 33030 ft 432 kts 187°
2026-05-07 07:08 45.66926 -3.79585 33026 ft 432 kts 187°
2026-05-07 07:09 45.60944 -3.80463 33030 ft 432 kts 187°
2026-05-07 07:09 45.54964 -3.81337 33021 ft 432 kts 187°
2026-05-07 07:10 45.48990 -3.82203 33024 ft 431 kts 187°
2026-05-07 07:10 45.43020 -3.83075 33033 ft 431 kts 187°
2026-05-07 07:11 45.37039 -3.83944 33033 ft 432 kts 187°
2026-05-07 07:11 45.31066 -3.84803 33027 ft 431 kts 187°
2026-05-07 07:12 45.25101 -3.85672 33040 ft 431 kts 187°
2026-05-07 07:12 45.19171 -3.86518 33042 ft 431 kts 186°
2026-05-07 07:13 45.13217 -3.87376 33034 ft 430 kts 187°
2026-05-07 07:13 45.07268 -3.88247 33028 ft 429 kts 187°
2026-05-07 07:14 45.01328 -3.89097 33029 ft 429 kts 186°
2026-05-07 07:14 44.95391 -3.89931 33025 ft 429 kts 186°
2026-05-07 07:15 44.89460 -3.90770 33020 ft 428 kts 187°
2026-05-07 07:15 44.83533 -3.91621 33022 ft 428 kts 186°
2026-05-07 07:16 44.77619 -3.92460 33018 ft 427 kts 186°
2026-05-07 07:16 44.71698 -3.93294 33019 ft 427 kts 186°
2026-05-07 07:17 44.65786 -3.94131 33015 ft 427 kts 187°
2026-05-07 07:17 44.59879 -3.94968 33016 ft 427 kts 186°
2026-05-07 07:18 44.53964 -3.95807 33006 ft 427 kts 187°
2026-05-07 07:18 44.48057 -3.96634 33013 ft 427 kts 186°
2026-05-07 07:19 44.42154 -3.97448 33011 ft 426 kts 186°
2026-05-07 07:19 44.36289 -3.98270 33013 ft 426 kts 187°
2026-05-07 07:20 44.30365 -3.98513 33008 ft 427 kts 177°
2026-05-07 07:20 44.24435 -3.97923 33006 ft 427 kts 177°
2026-05-07 07:21 44.18506 -3.97342 32998 ft 427 kts 177°
2026-05-07 07:21 44.12581 -3.96761 32994 ft 427 kts 178°
2026-05-07 07:22 44.06660 -3.96188 32997 ft 426 kts 178°
2026-05-07 07:22 44.00738 -3.95616 32998 ft 426 kts 178°
2026-05-07 07:23 43.94821 -3.95046 32989 ft 426 kts 178°
2026-05-07 07:23 43.88910 -3.94468 32991 ft 426 kts 178°
2026-05-07 07:24 43.83002 -3.93891 32990 ft 426 kts 178°
2026-05-07 07:24 43.77098 -3.93324 32988 ft 425 kts 178°
2026-05-07 07:25 43.68253 -3.92468 32977 ft 425 kts 178°
2026-05-07 07:26 43.62360 -3.91903 32979 ft 424 kts 178°
2026-05-07 07:26 43.56465 -3.91350 32981 ft 424 kts 178°
2026-05-07 07:27 43.50621 -3.90798 32984 ft 424 kts 178°
2026-05-07 07:27 43.44737 -3.90354 32989 ft 422 kts 184°
2026-05-07 07:28 43.38917 -3.91144 32990 ft 420 kts 188°
2026-05-07 07:28 43.33103 -3.92011 32988 ft 420 kts 188°
2026-05-07 07:29 43.27297 -3.92862 32985 ft 419 kts 188°
2026-05-07 07:29 43.21496 -3.93719 32976 ft 419 kts 188°
2026-05-07 07:30 43.15697 -3.94575 32970 ft 419 kts 188°
2026-05-07 07:30 43.09903 -3.95435 32981 ft 418 kts 188°
2026-05-07 07:31 43.04124 -3.96293 32978 ft 418 kts 188°
2026-05-07 07:31 42.98380 -3.97135 32981 ft 418 kts 188°
2026-05-07 07:32 42.92603 -3.97969 32981 ft 417 kts 188°
2026-05-07 07:32 42.86827 -3.98805 32982 ft 417 kts 188°
2026-05-07 07:33 42.81049 -3.99649 32989 ft 417 kts 188°
2026-05-07 07:33 42.75282 -4.00494 32982 ft 417 kts 188°
2026-05-07 07:34 42.69514 -4.01341 32982 ft 417 kts 188°
2026-05-07 07:34 42.63747 -4.02183 32978 ft 417 kts 188°
2026-05-07 07:35 42.57980 -4.03009 32971 ft 417 kts 188°
2026-05-07 07:35 42.52214 -4.03838 32962 ft 416 kts 188°
2026-05-07 07:36 42.46496 -4.04661 32967 ft 416 kts 188°
2026-05-07 07:36 42.40703 -4.05499 32959 ft 416 kts 188°
2026-05-07 07:37 42.34944 -4.06323 32960 ft 416 kts 188°
2026-05-07 07:37 42.29191 -4.07145 32952 ft 415 kts 188°
2026-05-07 07:38 42.23441 -4.07962 32953 ft 416 kts 188°
2026-05-07 07:38 42.17692 -4.08791 32953 ft 416 kts 188°
2026-05-07 07:39 42.11944 -4.09612 32944 ft 416 kts 188°
2026-05-07 07:39 42.06186 -4.10433 32949 ft 415 kts 188°
2026-05-07 07:40 42.00438 -4.11229 32948 ft 416 kts 187°
2026-05-07 07:40 41.94704 -4.11883 32948 ft 416 kts 186°
2026-05-07 07:41 41.88936 -4.12506 32945 ft 416 kts 187°
2026-05-07 07:41 41.83169 -4.13148 32950 ft 416 kts 187°
2026-05-07 07:42 41.77412 -4.13804 32948 ft 415 kts 187°
2026-05-07 07:42 41.71660 -4.14457 32948 ft 415 kts 187°
2026-05-07 07:43 41.65910 -4.15111 32945 ft 414 kts 187°
2026-05-07 07:43 41.60162 -4.15755 32941 ft 414 kts 187°
2026-05-07 07:44 41.54427 -4.16404 32940 ft 414 kts 187°
2026-05-07 07:44 41.48689 -4.17055 32933 ft 414 kts 187°
2026-05-07 07:45 41.42961 -4.17698 32934 ft 413 kts 187°
2026-05-07 07:45 41.37230 -4.18342 32936 ft 413 kts 187°
2026-05-07 07:46 41.31506 -4.18982 32927 ft 412 kts 186°
2026-05-07 07:46 41.25789 -4.19619 32926 ft 412 kts 186°
2026-05-07 07:47 41.20071 -4.20258 32926 ft 412 kts 186°
2026-05-07 07:47 41.14354 -4.20902 32924 ft 412 kts 186°
2026-05-07 07:48 41.08639 -4.21544 32925 ft 412 kts 186°
2026-05-07 07:48 41.02924 -4.22179 32927 ft 412 kts 186°
2026-05-07 07:49 40.97209 -4.22807 32940 ft 412 kts 186°
2026-05-07 07:49 40.91503 -4.23434 32940 ft 411 kts 186°
2026-05-07 07:50 40.85799 -4.24072 32934 ft 411 kts 186°
2026-05-07 07:50 40.80100 -4.24704 32933 ft 411 kts 186°
2026-05-07 07:51 40.74405 -4.25317 32936 ft 410 kts 186°
2026-05-07 07:51 40.68718 -4.25946 32937 ft 410 kts 186°
2026-05-07 07:52 40.63065 -4.26567 32944 ft 410 kts 186°
2026-05-07 07:52 40.57370 -4.27188 32943 ft 411 kts 186°
2026-05-07 07:53 40.51678 -4.27816 32945 ft 411 kts 186°
2026-05-07 07:53 40.45984 -4.28441 32948 ft 411 kts 186°
2026-05-07 07:54 40.40288 -4.29056 32948 ft 410 kts 186°
2026-05-07 07:54 40.34604 -4.29668 32946 ft 409 kts 186°
2026-05-07 07:55 40.28931 -4.30282 32951 ft 409 kts 186°
2026-05-07 07:55 40.23264 -4.30900 32950 ft 408 kts 186°
2026-05-07 07:56 40.17606 -4.31517 32938 ft 408 kts 186°
2026-05-07 07:56 40.11950 -4.32133 32930 ft 408 kts 186°
2026-05-07 07:57 40.06299 -4.32736 32934 ft 408 kts 186°
2026-05-07 07:57 40.01599 -4.33235 32932 ft 408 kts 186°
2026-05-07 07:58 39.95944 -4.33880 32931 ft 408 kts 188°
2026-05-07 07:58 39.90340 -4.34982 32922 ft 407 kts 191°
2026-05-07 07:59 39.84773 -4.36312 32923 ft 407 kts 192°
2026-05-07 07:59 39.79198 -4.37603 32922 ft 406 kts 191°
2026-05-07 08:00 39.73623 -4.38805 32917 ft 406 kts 190°
2026-05-07 08:00 39.68050 -4.39969 32915 ft 405 kts 191°
2026-05-07 08:01 39.62493 -4.41149 32917 ft 405 kts 191°
2026-05-07 08:01 39.56933 -4.42336 32913 ft 405 kts 191°
2026-05-07 08:02 39.51377 -4.43522 32912 ft 405 kts 191°
2026-05-07 08:02 39.45820 -4.44695 32907 ft 405 kts 191°
2026-05-07 08:03 39.40299 -4.45861 32910 ft 405 kts 191°
2026-05-07 08:03 39.34739 -4.47034 32912 ft 405 kts 191°
2026-05-07 08:04 39.29191 -4.48212 32913 ft 405 kts 191°
2026-05-07 08:04 39.23661 -4.49543 32901 ft 403 kts 198°
2026-05-07 08:05 39.18661 -4.52698 32913 ft 402 kts 213°
2026-05-07 08:05 39.14007 -4.56684 32911 ft 402 kts 213°
2026-05-07 08:06 39.09335 -4.60646 32909 ft 403 kts 213°
2026-05-07 08:06 39.04653 -4.64622 32896 ft 403 kts 213°
2026-05-07 08:07 38.99968 -4.68600 32883 ft 404 kts 213°
2026-05-07 08:07 38.95280 -4.72579 32886 ft 404 kts 213°
2026-05-07 08:08 38.90587 -4.76558 32894 ft 404 kts 213°
2026-05-07 08:08 38.85886 -4.80534 32902 ft 405 kts 213°
2026-05-07 08:09 38.81181 -4.84507 32907 ft 406 kts 213°
2026-05-07 08:09 38.76458 -4.88481 32180 ft 409 kts 213°
2026-05-07 08:09 38.74055 -4.90499 31232 ft 414 kts 213°
2026-05-07 08:10 38.71650 -4.92516 30578 ft 412 kts 212°
2026-05-07 08:10 38.69275 -4.94506 30124 ft 405 kts 212°
2026-05-07 08:10 38.66933 -4.96473 29602 ft 400 kts 213°
2026-05-07 08:10 38.64623 -4.98419 29113 ft 394 kts 213°
2026-05-07 08:11 38.62386 -5.00306 28642 ft 388 kts 213°
2026-05-07 08:11 38.60149 -5.02187 28168 ft 382 kts 213°
2026-05-07 08:11 38.57943 -5.04036 27704 ft 377 kts 213°
2026-05-07 08:11 38.55765 -5.05854 27245 ft 371 kts 213°
2026-05-07 08:12 38.53618 -5.07644 26792 ft 366 kts 213°
2026-05-07 08:12 38.51475 -5.09347 26339 ft 361 kts 208°
2026-05-07 08:12 38.49176 -5.10629 25704 ft 362 kts 199°
2026-05-07 08:12 38.46765 -5.11572 25133 ft 362 kts 198°
2026-05-07 08:13 38.44368 -5.12498 24665 ft 358 kts 198°
2026-05-07 08:13 38.41992 -5.13421 24210 ft 355 kts 198°
2026-05-07 08:13 38.39638 -5.14343 23763 ft 352 kts 198°
2026-05-07 08:13 38.37307 -5.15260 23292 ft 349 kts 198°
2026-05-07 08:14 38.35004 -5.16165 22854 ft 344 kts 198°
2026-05-07 08:14 38.32728 -5.17056 22440 ft 341 kts 198°
2026-05-07 08:14 38.30466 -5.17942 22032 ft 340 kts 198°
2026-05-07 08:14 38.28210 -5.18824 21628 ft 338 kts 198°
2026-05-07 08:15 38.25963 -5.19703 21226 ft 337 kts 198°
2026-05-07 08:15 38.23733 -5.20577 20829 ft 335 kts 198°
2026-05-07 08:15 38.21508 -5.21446 20434 ft 333 kts 198°
2026-05-07 08:15 38.19297 -5.22307 20014 ft 332 kts 198°
2026-05-07 08:16 38.17100 -5.23161 19610 ft 330 kts 198°
2026-05-07 08:16 38.14909 -5.24013 19194 ft 328 kts 198°
2026-05-07 08:16 38.12729 -5.24860 18767 ft 327 kts 198°
2026-05-07 08:16 38.10560 -5.25704 18351 ft 325 kts 198°
2026-05-07 08:17 38.08403 -5.26544 17885 ft 324 kts 198°
2026-05-07 08:17 38.06250 -5.27379 17447 ft 323 kts 198°
2026-05-07 08:17 38.04104 -5.28207 17013 ft 322 kts 198°
2026-05-07 08:17 38.01996 -5.29022 16586 ft 320 kts 198°
2026-05-07 08:18 37.99873 -5.29843 16157 ft 318 kts 198°
2026-05-07 08:18 37.97759 -5.30659 15726 ft 317 kts 198°
2026-05-07 08:18 37.95652 -5.31474 15288 ft 316 kts 198°
2026-05-07 08:18 37.93561 -5.32284 14863 ft 314 kts 198°
2026-05-07 08:19 37.91478 -5.33090 14439 ft 312 kts 198°
2026-05-07 08:19 37.89406 -5.33888 14011 ft 310 kts 198°
2026-05-07 08:19 37.87348 -5.34680 13568 ft 308 kts 198°
2026-05-07 08:19 37.85301 -5.35471 13120 ft 306 kts 198°
2026-05-07 08:20 37.83267 -5.36258 12702 ft 305 kts 198°
2026-05-07 08:20 37.81241 -5.37041 12282 ft 303 kts 198°
2026-05-07 08:20 37.79232 -5.37816 11864 ft 302 kts 197°
2026-05-07 08:20 37.77272 -5.38741 11450 ft 300 kts 207°
2026-05-07 08:21 37.75508 -5.40123 11037 ft 299 kts 218°
2026-05-07 08:21 37.73946 -5.41846 10627 ft 298 kts 221°
2026-05-07 08:21 37.72414 -5.43578 10371 ft 291 kts 221°
2026-05-07 08:21 37.70927 -5.45250 10126 ft 283 kts 221°
2026-05-07 08:22 37.69475 -5.46874 10027 ft 279 kts 220°
2026-05-07 08:22 37.68020 -5.48499 9826 ft 278 kts 220°
2026-05-07 08:22 37.66568 -5.50118 9696 ft 279 kts 220°
2026-05-07 08:22 37.65114 -5.51743 9512 ft 280 kts 221°
2026-05-07 08:23 37.63678 -5.53371 9332 ft 278 kts 221°
2026-05-07 08:23 37.62243 -5.55017 8894 ft 279 kts 221°
2026-05-07 08:23 37.60809 -5.56668 8439 ft 280 kts 221°
2026-05-07 08:23 37.59394 -5.58295 8026 ft 279 kts 221°
2026-05-07 08:24 37.57967 -5.59931 7690 ft 275 kts 221°
2026-05-07 08:24 37.56559 -5.61543 7335 ft 273 kts 220°
2026-05-07 08:24 37.55149 -5.63148 6936 ft 272 kts 219°
2026-05-07 08:24 37.53531 -5.64260 6566 ft 266 kts 189°
2026-05-07 08:25 37.51732 -5.64030 6170 ft 262 kts 155°
2026-05-07 08:25 37.50205 -5.62763 5705 ft 264 kts 144°
2026-05-07 08:25 37.48698 -5.61439 5271 ft 265 kts 149°
2026-05-07 08:25 37.47032 -5.60390 4547 ft 270 kts 160°
2026-05-07 08:26 37.43608 -5.60628 4102 ft 238 kts 211°
2026-05-07 08:26 37.42444 -5.62027 3966 ft 232 kts 236°
2026-05-07 08:26 37.41872 -5.63912 3734 ft 234 kts 262°
2026-05-07 08:27 37.41835 -5.65949 3480 ft 231 kts 268°
2026-05-07 08:27 37.41839 -5.67951 3159 ft 227 kts 268°
2026-05-07 08:27 37.41838 -5.69927 2846 ft 224 kts 267°
2026-05-07 08:27 37.41836 -5.71864 2561 ft 219 kts 267°
2026-05-07 08:28 37.41832 -5.73744 2284 ft 210 kts 267°
2026-05-07 08:28 37.41829 -5.75539 2000 ft 202 kts 266°
2026-05-07 08:28 37.41828 -5.77231 1747 ft 182 kts 266°
2026-05-07 08:28 37.41827 -5.78735 1508 ft 164 kts 266°
2026-05-07 08:29 37.41821 -5.80134 1286 ft 155 kts 265°
2026-05-07 08:29 37.41816 -5.81464 1087 ft 150 kts 266°
2026-05-07 08:29 37.41813 -5.82766 858 ft 149 kts 266°
2026-05-07 08:29 37.41809 -5.84067 682 ft 147 kts 267°
2026-05-07 08:30 37.41806 -5.85354 479 ft 149 kts 266°
2026-05-07 08:30 37.41803 -5.86659 279 ft 149 kts 267°
2026-05-07 08:30 37.41800 -5.87956 116 ft 142 kts 267°
2026-05-07 08:30 37.41794 -5.89034 102 ft 100 kts 269°
2026-05-07 08:31 37.41792 -5.89696 98 ft 57 kts 270°
2026-05-07 08:31 37.41790 -5.90171 97 ft 42 kts 269°
2026-05-07 08:31 37.41834 -5.90297 98 ft 14 kts 346°
2026-05-07 08:31 37.41946 -5.90304 97 ft 18 kts 359°
2026-05-07 08:32 37.42040 -5.90289 94 ft 13 kts 39°
2026-05-07 08:32 37.42052 -5.90180 94 ft 8 kts 90°
2026-05-07 08:32 37.42052 -5.90093 94 ft 12 kts 89°
2026-05-07 08:32 37.42070 -5.89998 94 ft 12 kts 47°
2026-05-07 08:33 37.42137 -5.89916 94 ft 12 kts 44°
2026-05-07 08:33 37.42170 -5.89897 94 ft 6 kts 343°
2026-05-07 08:33 37.42202 -5.89931 94 ft 5 kts 314°
2026-05-07 08:33 37.42213 -5.89946 94 ft 2 kts 314°
2026-05-07 08:34 37.42214 -5.89948 94 ft 0 kts 314°